DW6619 Weather Reports


Display with metric or nautical units.
time (UTC)temp
F
wind
direction
speed
MPH
gust
MPH
rain 1hr
in
rain 24hr
in
rain mn
in
humidity
%
barometer
mb
20260506001539 76 227 0.0 1.0 0.00 0.00 0.00 38 1009.6
20260506000014 77 224 0.0 0.0 0.00 0.00 0.00 35 1009.4
20260505234514 78 246 0.0 0.0 0.00 0.00 0.00 33 1009.3
20260505233031 79 184 0.0 10.0 0.00 0.00 0.00 32 1009.3
20260505231525 80 183 1.0 16.0 0.00 0.00 0.00 32 1009.3
20260505230015 80 202 0.0 0.0 0.00 0.00 0.00 33 1009.3
20260505224513 80 172 0.0 9.0 0.00 0.00 0.00 32 1009.2
20260505223011 81 116 0.0 9.0 0.00 0.00 0.00 32 1009.2
20260505221509 81 290 0.0 13.0 0.00 0.00 0.00 32 1009.3
20260505220025 82 289 4.0 14.0 0.00 0.00 0.00 30 1009.2
20260505214519 83 226 1.0 10.0 0.00 0.00 0.00 30 1009.1
20260505213016 83 184 4.0 18.0 0.00 0.00 0.00 29 1009.1
20260505211511 84 241 4.0 12.0 0.00 0.00 0.00 30 1009.0
20260505210031 83 182 0.0 16.0 0.00 0.00 0.00 30 1008.9
20260505204527 84 130 5.0 17.0 0.00 0.00 0.00 29 1009.0
20260505203025 84 257 2.0 10.0 0.00 0.00 0.00 31 1009.1
20260505201543 85 248 2.0 12.0 0.00 0.00 0.00 33 1008.9
20260505200009 86 154 1.0 10.0 0.00 0.00 0.00 30 1009.0
20260505194543 86 227 3.0 12.0 0.00 0.00 0.00 29 1009.1
20260505193016 85 252 0.0 14.0 0.00 0.00 0.00 31 1009.4
20260505191511 85 203 2.0 13.0 0.00 0.00 0.00 31 1009.6
20260505190009 85 122 3.0 13.0 0.00 0.00 0.00 29 1009.7
20260505184520 85 167 4.0 17.0 0.00 0.00 0.00 29 1010.2
20260505183016 84 186 1.0 15.0 0.00 0.00 0.00 33 1010.4
20260505181533 85 175 2.0 12.0 0.00 0.00 0.00 33 1010.5
20260505180028 85 189 1.0 10.0 0.00 0.00 0.00 33 1010.6
20260505174525 84 284 3.0 15.0 0.00 0.00 0.00 33 1010.7
20260505173043 84 186 2.0 14.0 0.00 0.00 0.00 35 1010.9
20260505171547 83 188 0.0 15.0 0.00 0.00 0.00 34 1010.9
20260505170015 83 234 1.0 12.0 0.00 0.00 0.00 35 1011.1
20260505164517 82 272 0.0 10.0 0.00 0.00 0.00 40 1011.2
20260505163012 82 194 2.0 10.0 0.00 0.00 0.00 38 1011.6
20260505161530 82 199 0.0 9.0 0.00 0.00 0.00 42 1011.9
20260505153016 80 315 0.0 0.0 0.00 0.00 0.00 41 1012.3
20260505151511 79 217 0.0 1.0 0.00 0.00 0.00 42 1012.3
20260505124511 67 144 0.0 0.0 0.00 0.00 0.00 55 1012.7
20260505123010 65 264 0.0 0.0 0.00 0.00 0.00 57 1012.7
20260505121513 63 197 0.0 0.0 0.00 0.00 0.00 61 1012.6
20260505120012 62 200 0.0 0.0 0.00 0.00 0.00 62 1012.7
20260505114509 61 225 0.0 4.0 0.00 0.00 0.00 63 1012.4
20260505113025 61 208 0.0 1.0 0.00 0.00 0.00 63 1012.3
20260505111513 60 232 0.0 0.0 0.00 0.00 0.00 63 1012.3
20260505101523 60 270 0.0 0.0 0.00 0.00 0.00 63 1011.7
20260505100017 60 179 0.0 0.0 0.00 0.00 0.00 63 1011.7
20260505094515 60 236 0.0 0.0 0.00 0.00 0.00 63 1011.7
20260505093033 59 213 0.0 0.0 0.00 0.00 0.00 64 1011.6
20260505091511 59 211 0.0 0.0 0.00 0.00 0.00 64 1011.4
20260505090009 59 254 0.0 0.0 0.00 0.00 0.00 65 1011.3
20260505084526 59 128 0.0 0.0 0.00 0.00 0.00 66 1011.3
20260505083020 58 227 0.0 0.0 0.00 0.00 0.00 68 1011.3
20260505081519 58 252 0.0 0.0 0.00 0.00 0.00 68 1011.3
20260505080009 58 223 0.0 0.0 0.00 0.00 0.00 69 1011.2
20260505074531 58 235 0.0 0.0 0.00 0.00 0.00 70 1010.9
20260505073048 58 194 0.0 0.0 0.00 0.00 0.00 71 1011.1
20260505071514 57 225 0.0 0.0 0.00 0.00 0.00 72 1010.9
20260505070012 57 223 0.0 0.0 0.00 0.00 0.00 73 1010.7
20260505064535 56 230 0.0 0.0 0.00 0.00 0.00 75 1010.8
20260505063011 56 242 0.0 0.0 0.00 0.00 0.00 75 1010.8
20260505061529 56 259 0.0 0.0 0.00 0.00 0.00 74 1010.8
20260505060024 57 259 0.0 0.0 0.00 0.00 0.00 73 1010.8
20260505054522 57 259 0.0 0.0 0.00 0.00 0.00 73 1010.8
20260505053020 58 259 0.0 0.0 0.00 0.00 0.00 73 1010.8
20260505051519 58 259 0.0 0.0 0.00 0.00 0.00 72 1010.9
20260505041528 62 259 0.0 0.0 0.00 0.00 0.00 64 1010.9
20260505040026 63 259 0.0 0.0 0.00 0.00 0.00 63 1010.9
20260505034515 63 228 0.0 0.0 0.00 0.00 0.00 61 1011.0
20260505033009 64 229 0.0 0.0 0.00 0.00 0.00 60 1011.0
20260505031534 65 226 0.0 0.0 0.00 0.00 0.00 59 1010.9
20260505030025 65 248 0.0 0.0 0.00 0.00 0.00 57 1010.8
20260505024522 66 254 0.0 0.0 0.00 0.00 0.00 56 1010.8
20260505023019 67 227 0.0 0.0 0.00 0.00 0.00 54 1010.7
20260505021510 67 238 0.0 0.0 0.00 0.00 0.00 53 1010.7
20260505020023 68 276 0.0 0.0 0.00 0.00 0.00 52 1010.7
20260505014517 68 230 0.0 0.0 0.00 0.00 0.00 50 1010.5
20260505013012 68 198 0.0 0.0 0.00 0.00 0.00 49 1010.3
20260505011513 69 227 0.0 0.0 0.00 0.00 0.00 48 1010.2
20260505010020 70 246 0.0 0.0 0.00 0.00 0.00 47 1010.0
20260505004536 71 223 0.0 0.0 0.00 0.00 0.00 46 1009.9
20260505003026 71 180 0.0 0.0 0.00 0.00 0.00 46 1009.9